Dewpoint
53 55 59 59 57 57 57 57 57 57 57 58 59 59 58 57 58 59 58 58 59 59 59 59 59 59 58 57 56 56 56 56 56 56 56 56 56 56 56 56 56 56 56 55 55 56 56 56 57 57 58 59 59 60 60 60 60 60 60 60 60 60 59 59 59 59 59 60 61 61 61 61 60 59 58 58 58 57 57 57 56 56 55 54 53 53
53 54 57 58 58 57 57 57 57 57 57 58 58 59 58 58 58 58 59 59 59 59 59 59 59 59 59 58 57 56 56 56 56 56 56 56 56 56 56 56 56 56 56 55 55 55 55 56 56 57 57 58 58 59 59 59 60 60 59 59 59 59 59 58 58 58 58 59 60 61 61 60 59 58 58 58 58 58 57 57 56 55 54 53 53 53
53 53 55 57 58 57 57 57 57 57 57 58 59 59 59 58 57 57 58 58 59 59 60 59 59 59 59 59 57 57 56 56 56 56 56 56 56 56 56 56 56 56 55 55 55 55 55 56 56 57 57 57 58 58 58 58 59 59 58 58 58 58 58 57 57 57 57 58 59 60 60 59 58 58 58 58 58 58 58 57 56 55 54 53 53 53
54 54 53 55 57 58 58 58 58 58 58 58 59 59 59 58 58 57 57 58 58 59 59 59 59 59 58 59 58 57 56 56 56 56 56 56 56 56 56 55 55 55 55 55 55 55 55 55 56 56 57 57 57 57 57 58 58 57 57 57 57 57 57 57 57 57 57 57 58 58 59 58 58 58 58 58 58 58 58 57 56 55 53 53 53 53
56 55 54 54 55 57 58 58 59 59 59 59 59 59 59 58 58 58 58 58 58 58 59 59 59 58 58 58 58 57 56 56 56 56 56 56 56 55 55 55 55 55 55 55 55 55 55 55 56 56 56 57 57 57 57 57 57 57 57 57 56 56 56 56 56 56 56 57 57 57 58 58 58 58 58 58 58 58 58 57 56 54 53 53 53 53
57 56 56 55 55 55 56 57 59 59 60 59 59 59 59 59 59 58 58 58 58 58 58 58 58 58 58 58 57 57 56 56 56 56 55 55 55 55 55 55 55 55 55 55 55 55 55 55 55 56 56 56 57 57 57 57 57 56 56 56 56 55 55 55 55 56 56 57 57 57 57 57 57 57 57 57 58 58 57 57 56 54 53 53 53 53
57 57 57 57 57 57 57 57 58 59 60 59 59 59 59 59 59 59 58 58 58 57 57 58 58 58 58 58 57 56 56 56 55 55 55 55 55 55 55 55 55 55 55 55 55 55 55 55 55 55 56 56 56 57 57 57 56 56 55 55 55 55 55 55 55 56 56 57 57 57 57 57 57 57 57 57 57 57 57 57 56 54 54 53 53 53
57 57 58 58 58 58 58 58 59 59 60 59 58 58 58 58 58 59 59 59 58 58 57 57 57 58 58 58 57 57 57 57 56 56 56 55 55 55 55 55 55 55 55 55 55 55 55 55 55 55 56 56 56 56 57 56 56 55 55 55 54 55 55 55 55 56 56 57 57 57 56 56 56 56 56 56 57 57 56 56 55 55 54 54 53 53
57 57 58 58 58 58 58 58 59 59 60 59 58 58 58 57 58 58 58 58 58 58 57 57 57 57 58 58 58 58 57 57 57 57 57 57 56 56 56 56 55 55 55 55 55 55 55 55 55 55 55 56 56 56 56 56 55 54 54 54 54 54 55 55 56 56 56 56 56 56 56 56 56 56 56 56 56 55 55 55 55 55 54 54 54 53
57 57 57 58 58 58 57 58 58 59 59 59 59 58 58 57 57 57 57 57 57 57 57 57 57 57 57 57 58 58 57 57 57 57 57 56 56 56 56 56 56 56 55 55 55 55 55 55 55 55 55 55 55 55 55 55 54 54 54 54 54 54 55 55 56 56 56 56 56 56 56 56 56 55 55 55 55 54 54 54 54 54 54 54 54 54
57 57 57 57 56 55 56 56 55 55 57 57 57 57 58 57 57 57 56 56 56 56 56 56 56 56 56 57 57 57 57 57 57 56 56 55 54 54 54 54 55 55 55 55 55 55 54 54 54 54 55 55 55 55 54 54 53 53 53 53 54 54 55 55 55 56 56 56 56 56 56 55 55 55 55 54 54 53 53 53 53 53 54 54 54 53
56 56 56 55 52 50 52 51 50 50 53 54 54 55 56 57 57 57 56 55 55 56 56 56 56 55 55 55 56 56 56 56 56 56 56 55 55 55 54 54 55 55 55 55 55 54 54 54 54 54 54 54 54 54 54 53 53 53 53 53 54 54 54 55 55 55 56 56 56 55 55 55 55 54 54 54 53 53 53 53 53 53 53 53 53 53
55 55 54 53 51 50 50 48 48 48 50 52 53 53 54 55 55 56 55 55 55 56 55 55 54 54 55 54 54 55 55 55 55 55 55 55 56 56 55 55 55 56 56 56 56 55 55 54 54 54 54 54 54 53 53 53 53 53 53 53 54 54 54 55 55 55 55 55 55 55 55 54 54 54 53 53 53 53 52 52 52 53 53 53 53 53
53 53 53 52 51 51 51 50 49 49 50 52 53 54 54 55 54 54 53 53 54 55 54 53 53 53 53 53 53 53 53 53 53 54 54 54 55 55 56 55 55 55 55 55 56 56 55 55 55 54 54 54 54 53 53 53 53 53 53 53 54 54 54 54 55 55 55 55 55 54 54 54 53 53 53 53 52 52 52 52 52 52 52 52 52 52
53 53 52 51 51 52 52 52 51 51 52 53 53 54 54 54 54 53 53 53 53 53 53 52 52 53 53 52 52 52 53 53 53 53 53 53 53 54 55 54 54 54 54 54 54 55 55 55 55 55 54 54 54 53 53 53 53 53 53 53 54 54 54 54 54 54 54 54 54 54 53 53 53 53 52 52 52 52 51 51 51 51 52 51 51 51
53 53 52 52 52 52 53 53 53 53 53 53 54 54 53 53 53 53 52 52 52 51 50 50 50 51 52 52 51 51 51 52 52 52 52 51 50 50 52 53 53 53 53 53 53 53 54 54 55 54 54 54 53 53 53 53 53 53 53 53 54 54 54 54 54 54 54 53 53 53 53 53 52 52 52 51 51 51 51 51 51 51 51 50 50 50
53 53 53 53 53 53 53 53 53 53 53 54 54 53 53 53 53 53 52 51 50 50 49 49 49 49 50 51 50 50 51 51 51 51 51 50 48 47 48 51 52 52 52 52 53 53 53 53 54 54 54 53 53 53 53 53 53 53 53 53 53 53 53 53 53 53 53 53 53 53 52 52 52 51 51 51 51 50 50 50 50 50 50 49 49 49
53 53 53 53 53 53 54 54 54 54 54 53 53 53 53 53 53 52 51 50 50 49 49 49 49 48 49 49 50 50 50 50 51 51 50 49 47 45 45 48 50 51 51 51 52 52 53 53 53 53 53 53 53 52 53 53 53 53 53 53 53 53 53 53 53 52 52 52 52 52 52 51 51 51 50 50 50 50 50 50 49 49 49 48 48 48
51 53 53 53 53 53 53 53 53 53 53 53 53 52 52 52 51 51 50 50 50 49 49 49 49 49 49 49 50 50 50 50 51 50 49 48 46 43 43 46 48 50 50 50 51 52 52 53 53 53 53 52 52 52 53 53 53 53 53 53 53 52 52 52 52 52 52 52 51 51 51 51 50 50 50 50 49 49 49 49 49 48 48 48 47 47
50 51 52 53 53 53 53 54 54 54 53 53 53 52 50 51 51 50 50 50 50 50 50 49 49 49 49 49 50 50 50 51 51 50 49 48 44 42 41 45 48 48 48 48 48 48 50 52 52 52 52 52 52 52 53 53 53 53 53 52 52 52 52 51 51 51 51 51 51 51 50 50 50 49 49 49 49 49 49 48 48 48 47 47 46 46
48 50 52 53 53 53 53 53 54 54 54 53 52 51 50 50 50 50 50 50 50 50 50 49 49 49 50 50 50 51 51 51 50 49 48 46 43 41 40 44 46 48 46 44 44 45 48 50 51 52 52 52 52 52 52 53 53 53 53 52 52 51 51 51 51 51 51 51 50 50 50 50 49 49 49 49 49 48 48 48 48 47 47 46 46 46
48 49 51 53 53 53 53 54 54 54 54 53 52 51 51 50 50 49 49 49 49 49 49 49 50 50 50 50 51 51 51 51 50 49 48 45 43 41 40 41 44 46 44 43 42 44 46 48 50 51 52 52 52 52 52 52 53 53 52 52 52 51 51 51 51 50 50 50 50 50 50 49 49 49 48 48 48 48 48 47 47 46 46 45 45 45
48 49 50 51 52 53 53 53 53 54 53 53 52 51 51 51 50 50 50 50 50 50 50 49 49 48 48 49 50 51 51 51 51 50 48 46 44 42 40 40 43 44 44 41 41 42 44 46 48 50 52 52 52 52 52 52 52 52 52 52 51 51 51 51 50 50 50 50 50 50 49 49 49 48 48 48 48 47 47 46 46 45 45 45 45 45
48 49 49 50 51 52 52 52 52 52 52 52 52 51 50 50 50 51 51 51 50 50 49 47 46 45 45 47 48 48 50 51 51 49 48 47 45 43 40 41 43 44 43 40 40 41 44 45 47 49 51 51 51 51 51 51 51 51 51 51 51 51 51 50 50 50 50 50 50 49 49 49 48 48 48 47 47 46 46 45 45 45 44 44 44 45
48 48 49 49 50 50 50 51 51 51 51 51 51 50 49 49 50 51 50 50 49 48 48 46 45 45 44 45 46 46 48 49 49 49 48 47 44 41 39 41 43 44 42 39 39 40 42 44 46 48 50 51 51 51 51 51 51 51 51 51 51 50 50 50 50 50 49 49 49 49 49 48 48 48 47 47 46 46 45 45 44 44 44 44 44 44
45 45 46 46 47 47 48 49 49 50 50 51 52 52 51 50 49 49 48 48 48 47 46 46 45 45 45 44 45 45 47 47 48 48 48 46 43 40 39 40 42 42 40 39 39 40 41 43 44 46 48 50 51 51 51 50 50 50 50 50 50 50 50 50 49 49 49 49 49 48 48 48 48 47 47 46 46 45 44 44 44 44 44 43 44 44
42 42 42 43 44 45 46 47 48 49 49 50 51 51 51 50 48 47 47 47 47 47 46 45 45 45 45 44 44 45 46 46 46 46 47 45 43 40 39 40 41 41 39 38 39 39 41 42 43 44 46 48 50 51 50 50 50 50 50 50 50 50 49 49 49 49 49 49 48 48 48 48 47 47 46 46 45 44 44 44 44 44 43 43 43 43
40 40 41 42 43 44 45 46 48 48 49 50 50 50 51 50 48 47 47 48 47 47 46 46 45 45 45 44 44 44 45 46 46 46 45 45 43 41 39 40 40 40 39 38 38 39 40 40 41 42 43 46 48 50 50 50 50 50 50 50 49 49 49 49 49 49 48 48 48 48 48 47 47 46 46 45 44 44 44 44 44 44 43 42 42 41
39 39 40 41 41 43 44 45 47 48 49 49 49 50 50 50 49 48 48 48 48 47 46 46 46 46 46 45 44 44 44 45 45 46 45 45 43 41 40 40 40 40 39 37 37 37 37 39 39 39 39 43 46 48 50 50 50 50 50 49 49 49 49 49 48 48 48 48 48 48 47 47 46 46 45 45 44 44 44 44 44 43 42 42 41 41
38 38 39 39 40 41 42 44 46 48 48 49 49 49 50 50 50 49 49 48 48 47 46 46 46 46 46 45 44 43 43 44 45 46 46 45 43 41 39 39 39 39 39 38 37 37 36 37 38 37 38 40 43 45 48 49 49 50 50 49 49 49 48 48 48 48 48 48 48 47 47 46 46 45 45 44 44 44 44 44 44 43 42 41 41 40
36 36 37 38 39 40 41 42 44 46 48 49 49 49 50 50 50 50 50 49 48 47 46 46 46 46 46 45 43 42 43 44 45 46 46 45 44 41 39 39 39 39 40 40 39 39 37 37 37 37 37 38 40 42 46 48 48 48 49 49 49 49 48 48 48 48 47 47 47 47 46 46 45 45 45 44 44 44 44 44 43 42 41 41 40 40
35 35 36 37 38 39 39 40 42 44 46 48 49 50 50 50 50 50 50 49 49 48 47 47 47 47 46 46 44 44 44 44 45 46 46 46 44 42 40 40 39 39 41 42 42 41 39 39 38 37 36 37 38 39 43 45 46 47 48 48 48 48 48 48 47 47 47 47 47 47 46 46 45 45 44 44 44 44 44 44 43 42 41 41 40 39
34 34 35 35 36 37 38 39 40 41 43 45 48 49 50 50 50 50 50 50 49 48 48 47 47 47 47 46 46 45 45 45 45 46 46 46 44 42 40 40 40 39 40 41 41 41 41 39 39 37 36 37 37 39 40 42 44 46 46 47 47 47 47 48 47 47 47 47 47 46 46 45 45 45 44 44 44 44 44 44 43 42 41 40 39 39
33 33 34 34 35 36 36 38 39 39 41 43 45 48 49 49 49 49 50 50 50 49 48 48 48 47 47 46 46 46 46 46 45 46 46 45 44 42 41 40 40 39 40 39 39 39 40 39 39 38 37 36 37 38 39 40 42 44 44 45 46 46 47 47 47 47 47 46 46 46 46 45 45 45 44 44 44 44 44 44 43 42 41 40 39 39
31 32 32 33 34 34 35 36 37 39 39 41 44 46 48 48 49 49 49 49 49 49 49 49 48 48 48 47 47 46 46 46 45 46 46 45 44 42 41 40 40 40 40 40 39 39 39 39 39 38 37 36 36 37 37 38 39 40 41 44 45 45 46 46 46 46 46 46 45 45 45 45 45 44 44 44 44 44 44 43 43 42 42 41 40 39
30 30 31 31 32 33 34 35 36 37 38 40 42 45 47 48 49 49 49 49 49 49 49 49 49 49 49 48 48 47 47 46 45 46 46 45 44 43 42 41 41 40 40 40 40 39 39 38 39 39 38 37 36 36 37 37 38 39 39 42 43 44 45 46 46 45 45 45 44 44 44 44 44 44 44 44 44 44 44 43 43 42 42 41 41 40
30 30 30 31 31 32 33 34 35 36 37 39 41 44 47 48 48 48 49 49 49 49 49 49 49 50 49 49 49 48 48 47 46 45 46 46 45 44 43 42 41 41 41 41 40 40 39 38 38 38 38 38 37 37 36 36 37 38 39 40 41 42 44 44 45 45 44 44 44 44 44 44 44 44 43 44 44 44 43 43 43 42 42 42 41 42
29 29 30 30 31 31 32 33 35 35 36 38 39 42 46 47 48 48 48 48 48 48 49 49 49 49 50 49 49 49 49 48 46 45 46 46 45 44 44 42 42 42 42 41 41 40 39 38 37 37 37 38 38 38 37 37 37 37 39 39 40 40 41 43 44 44 44 44 44 44 44 44 43 43 43 43 43 42 42 42 42 42 42 42 42 43
28 28 29 30 30 30 31 32 33 34 35 37 39 42 45 47 48 48 48 48 49 49 49 49 49 48 45 44 46 48 47 44 41 41 43 44 44 45 44 43 42 42 42 42 42 41 39 38 37 37 37 37 37 37 37 37 37 37 38 39 39 39 39 41 42 43 43 43 43 43 43 43 42 42 42 41 41 41 40 40 40 41 40 41 41 43
27 28 28 29 29 30 30 31 32 33 35 36 39 41 44 46 47 48 48 48 49 49 49 48 49 48 47 46 46 46 45 41 41 41 41 41 42 44 45 43 42 42 42 42 42 42 40 39 39 38 38 38 37 36 36 36 37 38 38 38 38 38 39 40 41 41 42 42 42 42 42 42 41 41 41 40 40 40 39 39 39 39 39 40 40 41
27 27 27 28 29 30 30 31 32 33 33 35 37 40 44 46 47 47 47 48 48 48 48 48 48 48 47 46 46 46 45 43 43 43 41 39 40 43 45 44 43 42 42 42 42 42 41 40 39 39 39 38 38 37 36 36 37 38 38 38 38 38 39 39 40 40 41 41 41 41 41 41 40 40 40 39 39 39 39 39 39 39 39 39 40 41
28 28 28 28 28 29 30 31 32 33 33 34 35 38 41 44 46 46 46 46 46 46 46 46 46 46 45 45 45 45 45 44 43 42 41 39 40 42 44 44 43 43 42 42 42 41 41 41 40 39 39 39 38 36 35 36 37 38 38 38 38 38 38 39 39 39 40 40 40 41 41 40 40 39 39 39 39 39 39 39 39 39 39 39 39 41
27 27 28 29 30 30 31 32 32 32 32 33 35 37 39 43 45 46 46 45 45 45 45 45 45 45 44 44 44 44 44 44 44 44 42 41 40 42 44 44 44 43 42 42 41 41 41 41 40 40 39 39 38 36 35 35 36 37 38 38 38 37 36 37 38 39 39 39 40 40 40 40 39 39 39 39 38 38 38 39 39 39 39 39 39 40
28 28 29 29 30 30 31 31 31 31 32 33 35 36 39 42 44 45 45 45 45 45 44 44 44 44 44 43 43 43 43 43 43 44 44 43 42 43 44 44 44 43 43 42 41 41 40 40 40 40 40 39 38 37 36 35 35 36 37 38 37 37 36 36 37 38 39 39 39 39 39 39 39 39 39 38 38 38 38 38 38 39 39 39 40 41
30 30 30 31 32 33 34 34 35 35 35 35 36 37 38 41 43 44 44 45 45 45 44 44 44 43 43 43 42 42 42 42 42 43 43 43 42 43 44 44 44 43 43 43 42 41 40 40 40 40 40 39 38 37 36 35 35 36 37 37 37 37 37 37 38 38 38 39 39 39 39 39 39 39 39 38 38 38 38 38 38 39 39 39 39 41
30 30 31 31 32 33 35 36 37 39 39 39 39 39 39 40 42 43 44 44 44 44 44 44 43 42 42 42 42 41 41 41 41 41 41 42 42 43 44 44 44 43 43 43 43 43 42 41 40 40 39 39 38 37 37 36 36 36 36 37 37 37 37 37 38 38 38 38 39 39 39 39 39 38 38 38 38 37 38 38 38 38 39 39 39 40
30 30 30 31 31 32 32 33 35 36 38 39 40 40 40 40 41 42 43 44 44 44 43 43 43 42 42 42 41 41 40 40 40 40 40 41 41 42 43 44 43 43 43 43 43 43 43 42 41 40 39 38 37 37 37 36 36 36 36 36 37 37 36 36 37 38 38 39 39 39 39 39 38 38 37 37 37 37 37 38 38 38 39 39 39 40
30 30 30 30 30 31 31 31 32 33 35 36 38 40 41 41 41 42 42 43 43 43 43 42 42 42 42 42 41 41 40 40 39 39 40 40 41 41 42 43 43 43 43 43 43 43 43 43 42 41 40 39 37 36 36 36 36 36 36 37 36 36 36 36 37 38 38 39 39 38 39 38 38 37 37 37 37 37 37 37 38 38 38 39 39 39
29 30 30 30 30 30 31 31 31 32 32 33 35 37 39 41 42 42 42 43 43 43 42 42 41 41 41 41 41 41 41 40 40 39 39 40 40 41 41 42 42 42 42 42 42 42 42 42 42 42 41 40 39 37 37 36 36 37 37 37 37 36 36 36 37 37 38 38 38 37 38 38 38 38 37 36 36 36 36 37 37 37 38 39 39 39
29 30 30 30 30 31 32 33 33 33 33 32 33 34 36 38 40 41 42 42 42 42 42 41 41 41 41 41 41 41 41 40 40 39 39 39 40 40 41 41 41 40 40 40 39 39 39 39 39 40 41 41 40 39 37 37 37 37 37 37 37 37 36 36 36 37 38 38 38 37 38 38 38 38 37 36 36 36 36 36 36 37 37 38 38 39
29 29 30 30 32 33 33 34 35 35 35 35 35 35 35 35 37 39 40 41 41 41 41 41 41 41 41 41 41 41 40 40 39 39 39 39 40 40 40 40 40 39 39 38 38 37 37 36 36 37 39 40 41 40 39 37 37 36 36 36 37 37 36 36 36 37 38 38 38 38 38 38 38 38 37 36 36 35 35 35 35 36 36 37 37 38